Location: Dilsberg
(49.3983°N, 8.8354°E)
Time: 16:05:57
(UTC+00:00)

Meteor 2-10 Rocket - Pass Details

Date: 19 May 2025
Orbit: 733 x 881 km, 81.2° (Epoch: 17 June)

Event Time Altitude Azimuth Distance (km) Brightness Sun altitude
Rises 23:00:12 0° 351° (N) 3,439 8.5 -20.5°
Reaches altitude 10° 23:02:44 10° 358° (N) 2,515 7.4 -20.5°
Maximum altitude 23:08:15 46° 71° (ENE) 1,161 4.5 -20.6°
Enters shadow 23:11:11 26° 130° (SE) 1,664 4.9 -20.6°
